Regional Weather Roundup
Issued by NWS

Home | Current Version | Previous Version | Graphics & Text | Print | Product List | Glossary On
Versions: 1 2 3 4 5 6 7 8 9 10 11 12 13 14 15 16 17 18 19 20 21 22 23 24 25 26 27 28 29 30 31 32 33 34 35 36 37 38 39 40 41 42 43 44 45 46 47 48 49 50
000
ASUS43 KMKX 250300
RWRWI

WISCONSIN REGIONAL WEATHER ROUNDUP
NATIONAL WEATHER SERVICE MILWAUKEE/SULLIVAN WI
1000 PM CDT FRI APR 24 2015

NOTE: "FAIR" INDICATES FEW OR NO CLOUDS BELOW 12,000 FEET WITH NO
SIGNIFICANT WEATHER AND/OR OBSTRUCTIONS TO VISIBILITY.

WIZ001-002-006>008-014>016-023>028-250400-
NORTHWEST WISCONSIN

CITY           SKY/WX    TMP DP  RH WIND       PRES   REMARKS
SUPERIOR ARPT  CLOUDY    35  31  83 NE14G20   29.95R WCI  26
ASHLAND        CLOUDY    36  30  79 NE8       29.96F WCI  30
HAYWARD        CLOUDY    41  32  70 E8        29.90S
SIREN          CLOUDY    47  26  44 E5        29.88S
CUMBERLAND     CLOUDY    45  28  53 E7        29.87R
RICE LAKE      CLOUDY    49  28  44 SE9       29.89S
CHETEK         CLOUDY    47  31  52 SE10G18   29.88S
LADYSMITH      CLOUDY    46  26  44 E6        29.91R
EAU CLAIRE     NOT AVBL
MENOMONIE      CLOUDY    46  36  68 E9        29.88R
NEW RICHMOND   CLOUDY    45  35  67 E9        29.85S
OSCEOLA        CLOUDY    47  37  67 E12       29.88R
$$

WIZ003>005-009-010-017-018-250400-
NORTH CENTRAL WISCONSIN

CITY           SKY/WX    TMP DP  RH WIND       PRES   REMARKS
MANITOWISH WTR CLOUDY    41  30  65 SE3       29.93S
ARBOR VITAE    CLOUDY    43  30  61 SE8       29.93S
WOODRUFF       CLOUDY    43  30  61 SE8       29.93S
RHINELANDER    CLOUDY    41  28  60 SE9       29.96R
EAGLE RIVER    CLOUDY    41  28  59 SE8       29.94S
LAND O LAKES   CLOUDY    40  31  67 S3        29.96R
PHILLIPS       CLOUDY    43  27  53 E6        29.90S
TOMAHAWK       CLOUDY    42  29  59 SE6       29.94S
MEDFORD        CLOUDY    46  29  52 SE9       29.91S
MERRILL        DRIZZLE   40  35  80 SE10      29.96R WCI  34
$$

WIZ029-030-035-036-043>047-250400-
CENTRAL WISCONSIN

CITY           SKY/WX    TMP DP  RH WIND       PRES   REMARKS
WAUSAU         LGT RAIN  41  36  82 E7        29.95R
MOSINEE        DRIZZLE   43  30  61 E9        29.96R
MARSHFIELD     LGT RAIN  43  31  62 SE14      29.93R
STEVENS POINT  DRIZZLE   40  26  55 E9        29.97R WCI  35
WAUPACA        CLOUDY    45  22  40 E6        29.98R
WAUTOMA        CLOUDY    39  39 100 E5        29.98R
WISC RAPIDS    LGT RAIN  42  36  79 SE8       29.95S
CAMP DOUGLAS   NOT AVBL
$$

WIZ011>013-019>022-031-037>040-048>050-250400-
NORTHEAST WISCONSIN

CITY           SKY/WX    TMP DP  RH WIND       PRES   REMARKS
ANTIGO         CLOUDY    40  24  54 E8        29.97R WCI  34
SHAWANO        CLOUDY    43  24  46 E5        29.99S
OCONTO         CLOUDY    39  22  50 CALM      30.01R
STURGEON BAY   CLOUDY    37  19  48 E9        30.02S WCI  31
GREEN BAY      CLOUDY    42  21  43 SE5       29.99F
MANITOWOC      NOT AVBL
APPLETON       CLOUDY    39  21  48 SE7       29.99S WCI  34
CLINTONVILLE   CLOUDY    43  23  45 CALM      29.98S
OSHKOSH        CLOUDY    40  33  76 SE12      29.98R WCI  33
$$

WIZ032>034-041-042-053>061-250400-
SOUTHWEST WISCONSIN

CITY           SKY/WX    TMP DP  RH WIND       PRES   REMARKS
LA CROSSE      LGT RAIN  45  39  79 SE6       29.88R
SPARTA         CLOUDY    42  37  84 E10G16    29.91R
VIROQUA        CLOUDY    41  39  92 E14       29.86R
BOSCOBEL       CLOUDY    44  38  79 NE6       29.88S
PRAIRIE DU CHI CLOUDY    44  37  76 E12       29.84S
PLATTEVILLE    CLOUDY    43  39  85 E16G22    29.85S
$$

WIZ056-057-062-063-064-067-068-250400-
SOUTH CENTRAL WISCONSIN

CITY           SKY/WX    TMP DP  RH WIND       PRES   REMARKS
REEDSBURG      CLOUDY    40  37  87 E8G16     29.92R
BARABOO/DELLS  CLOUDY    40  36  85 E12       29.92R WCI  33
LONE ROCK      NOT AVBL
MINERAL POINT  CLOUDY    43  37  81 E12       29.87R
MADISON        CLOUDY    40  34  79 E15       29.92S WCI  32
MIDDLETON      CLOUDY    42  36  80 E13       29.92R
WATERTOWN      CLOUDY    38  36  93 E9        29.93R WCI  31
MONROE         CLOUDY    41  37  87 E9G17     29.89R
JANESVILLE     CLOUDY    43  36  75 E12       29.91R
$$

WIZ051-052-058>065-066-070>072-250400-
SOUTHEAST WISCONSIN

CITY           SKY/WX    TMP DP  RH WIND       PRES   REMARKS
MILWAUKEE      CLOUDY    39  33  79 NE10      29.96F WCI  32
WAUKESHA       CLOUDY    36  34  93 NE12G17   29.95F WCI  27
MILWAUKEE/TIMM CLOUDY    36  34  93 NE9       29.96F WCI  29
RACINE         CLOUDY    40  33  76 NE15      29.96F WCI  32
BURLINGTON     CLOUDY    38  32  79 E9        29.92S WCI  32
KENOSHA        CLOUDY    41  35  79 E15       29.93F
FOND DU LAC    LGT RAIN  39  33  79 SE8       29.99R WCI  33
SHEBOYGAN      LGT RAIN  37  31  78 CALM      30.00S
WEST BEND      LGT RAIN  36  32  87 NE6       29.98S WCI  31
JUNEAU         CLOUDY    38  34  87 NE10      29.95F WCI  30
$$

LSZ147-162-250400-
LAKE SUPERIOR

STATION/POSITION TIME  TEMP    WIND        PRES    WAVE
                       AIR SEA DIR/SP/G            HT/PER
                 (UTC) (F)     (DEG/KT/KT) (MB)    (FT/S)
W MID LAKE BUOY  0150   35 34   80/ 14/ 16 1017.6R   3/ 5
DEVILS ISLAND    0200   36      70/ 14/ 16 1016.4F
PORT WING        0200   38      40/ 13/ 17 1014.6R
SAXON HARBOR     0200   38      60/  3/  8 1014.2
$$

LMZ867-665-643>646-250400-
LAKE MICHIGAN

STATION/POSITION TIME  TEMP    WIND        PRES    WAVE
                       AIR SEA DIR/SP/G            HT/PER
                 (UTC) (F)     (DEG/KT/KT) (MB)    (FT/S)
CHAMBERS ISLAND  0200   39      70/  7/ 11 1016.3F
NORTHPORT PIER   0200   37     110/  4/  6 1016.6F
SISTER BAY       0147   37     130/  6/ 10   N/A
KEWAUNEE LAKESHO 0200   38      40/  6/  9 1015.0F
SHEBOYGAN LAKESH 0200   38      90/  4/  5 1016.8R
PORT WASHINGTON  0240   38      40/  5/  7 1016.3S
MILWAUKEE LAKESH 0200   39      40/  6/  7   N/A
KENOSHA   LAKESH 0200   42      60/ 15/ 18 1013.9S
$$

TC  - TEMPERATURE IN CELSIUS
VSB - VISIBILITY IN STATUTE MILES
WCI - WIND CHILL INDEX
HX  - HEAT INDEX




USA.gov is the U.S. government's official web portal to all federal, state and local government web resources and services.